[[{"header":{"parameterUnit":"m.s-1","parameterCategory":1,"la1":30.2992,"la2":30.254,"lo1":-89.0895,"lo2":-89.0443,"dy":0.0025,"dx":0.0025,"nx":19,"ny":19,"refTime":"2026-05-24T09:00:00:Z","depth":0,"parameterNumber":2,"parameterNumberName":"U-component_of_WINDS"},"data":[0,0,0,-3.2635,-3.2639,-3.2841,-3.2842,-3.31,-3.3102,0,0,0,0,0,0,0,0,0,0,0,-3.2574,-3.2576,-3.2635,-3.264,-3.2841,-3.2842,-3.31,-3.3102,0,0,0,0,0,0,0,0,0,0,0,-3.2573,-3.2575,-3.2577,-3.2641,-3.2841,-3.2842,-3.3099,-3.2947,0,0,0,0,0,0,0,0,0,0,-3.2752,-3.2693,-3.2575,-3.2577,-3.2642,-3.2841,-3.2842,-3.294,-3.2957,-3.3008,0,-3.3052,0,-3.3081,-3.3119,-3.312,0,0,0,-3.2641,-3.2679,-3.2735,-3.2578,-3.2644,-3.284,-3.2751,-3.2949,-3.2968,-3.3031,-3.3056,-3.3066,-3.3086,-3.3121,-3.3122,-3.3412,-3.3413,0,0,-3.263,-3.261,-3.2722,-3.2747,-3.2714,-3.2744,-3.2757,-3.2961,-3.2988,-3.3057,-3.3072,-3.309,-3.3123,-3.3125,-3.341,-3.3412,0,0,0,-3.2597,-3.2602,-3.2653,-3.2736,-3.2773,-3.275,-3.2765,-3.2979,-3.2997,-3.3075,-3.3093,-3.3124,-3.3127,-3.3409,-3.3411,-3.3453,0,0,0,-3.2591,-3.2583,-3.2648,-3.2637,-3.2769,-3.2878,-3.2778,-3.2983,-3.3006,-3.3092,-3.3124,-3.313,-3.3408,-3.341,-3.3449,-3.3477,0,0,0,-3.2562,-3.2579,-3.2608,-3.2636,-3.2721,-3.2875,-3.2905,-3.2988,-3.3018,-3.3121,-3.3131,-3.3407,-3.341,-3.3445,-3.3471,-3.3547,0,0,0,-3.2525,-3.2643,-3.2608,-3.2748,-3.272,-3.2899,-3.2904,-3.3039,-3.3133,-3.3126,-3.3408,-3.3411,-3.3444,-3.3467,-3.3542,-3.3606,-3.3631,0,0,-3.2663,-3.2659,-3.2743,-3.2718,-3.2898,-3.287,-3.3058,-3.3164,-3.3193,-3.3338,-3.3345,-3.345,-3.347,-3.3546,-3.3777,-3.3797,0,0,0,-3.278,-3.284,-3.2893,-3.298,-3.3062,-3.3136,-3.3215,-3.3254,-3.3378,-3.3263,-3.3499,-3.3512,-3.3557,-3.3589,-3.3605,-3.3645,-3.3425,-3.3424,-3.3424,-3.2946,-3.2976,-3.3118,-3.3172,-3.3257,-3.3338,-3.341,-3.3477,-3.3483,-3.3539,-3.3582,-3.3718,-3.3754,-3.3767,-3.3808,-3.3619,-3.3619,-3.3619,-3.3619,-3.3151,-3.3241,-3.3247,-3.3385,-3.3418,-3.3535,-3.3618,-3.3619,-3.3735,-3.3689,-3.373,-3.3676,-3.3787,-3.3825,-3.3623,-3.3622,-3.3622,-3.3621,-3.3621,-3.3263,-3.3311,-3.3356,-3.3486,-3.3583,-3.3635,-3.3746,-3.3772,-3.3797,-3.3838,-3.3886,-3.3886,-3.3888,-3.3859,-3.386,-3.386,-3.3861,-3.3861,-3.3861,-3.336,-3.341,-3.3498,-3.3597,-3.3656,-3.3739,-3.3822,-3.3882,-3.3956,-3.3966,-3.3967,-3.3968,-3.3792,-3.3747,-3.3869,-3.3868,-3.3867,-3.3866,-3.3865,-3.3556,-3.3516,-3.3652,-3.3712,-3.383,-3.3925,-3.3957,-3.4078,-3.4132,-3.4186,-3.4179,-3.4045,-3.4044,-3.4031,-3.3993,-3.4172,-3.4172,-3.4172,-3.4172,-3.3649,-3.3651,-3.3797,-3.3891,-3.3986,-3.4029,-3.4185,-3.4251,-3.4314,-3.435,-3.4328,-3.4282,-3.4267,-3.4274,-3.4256,-3.4222,-3.4454,-3.4455,-3.4455,-3.3771,-3.3783,-3.391,-3.3969,-3.4063,-3.4145,-3.4292,-3.4402,-3.4465,-3.4467,-3.4379,-3.4367,-3.4292,-3.4266,-3.4264,-3.4235,-3.4173,0,0]},{"header":{"parameterUnit":"m.s-1","parameterCategory":1,"la1":30.2992,"la2":30.254,"lo1":-89.0895,"lo2":-89.0443,"dy":0.0025,"dx":0.0025,"nx":19,"ny":19,"refTime":"2026-05-24T09:00:00:Z","depth":0,"parameterNumber":3,"parameterNumberName":"V-component_of_WINDS"},"data":[0,0,0,1.9944,1.9943,1.9855,1.9855,1.9757,1.9756,0,0,0,0,0,0,0,0,0,0,0,1.9981,1.9981,1.9944,1.9943,1.9855,1.9855,1.9757,1.9756,0,0,0,0,0,0,0,0,0,0,0,1.9981,1.9981,1.9981,1.9942,1.9855,1.9855,1.9757,1.9818,0,0,0,0,0,0,0,0,0,0,1.99,1.9945,1.9981,1.9981,1.9942,1.9856,1.9855,1.982,1.9814,1.9803,0,1.9799,0,1.9776,1.9751,1.975,0,0,0,1.9934,1.995,1.9917,1.9981,1.9941,1.9856,1.9892,1.9816,1.9809,1.9795,1.9797,1.9793,1.9775,1.975,1.975,1.9723,1.9723,0,0,1.9939,1.9971,1.9923,1.9913,1.993,1.9895,1.989,1.9812,1.9816,1.9797,1.9791,1.9773,1.975,1.9749,1.9722,1.9723,0,0,0,1.9958,1.9974,1.9943,1.9918,1.9901,1.9893,1.9886,1.9819,1.9806,1.9789,1.9772,1.9749,1.9748,1.9722,1.9722,1.9767,0,0,0,1.9961,1.9986,1.9945,1.9964,1.9903,1.986,1.9896,1.9812,1.9802,1.9772,1.9749,1.9747,1.9722,1.9722,1.9765,1.9782,0,0,0,1.9983,1.9988,1.998,1.9966,1.993,1.986,1.9842,1.9809,1.9792,1.975,1.9747,1.9721,1.9722,1.9764,1.9779,1.9783,0,0,0,2.0015,2.002,1.9981,1.998,1.9931,1.989,1.9843,1.981,1.978,1.9749,1.9722,1.9722,1.9763,1.9777,1.9782,1.9791,1.9799,0,0,2.0039,2.0024,2.0021,1.9983,1.9958,1.9901,1.988,1.9822,1.9788,1.9746,1.9744,1.9766,1.9779,1.9783,1.9834,1.984,0,0,0,2.0039,2.0037,2.0024,1.9998,1.9955,1.9918,1.986,1.9838,1.9801,1.9774,1.9768,1.9775,1.9776,1.9779,1.9784,1.9782,1.9726,1.9726,1.9726,2.0118,2.0076,2.0067,2.0014,1.9989,1.9929,1.9904,1.9864,1.9828,1.9828,1.9814,1.985,1.9855,1.9859,1.9857,1.9817,1.9817,1.9818,1.9818,2.0148,2.0137,2.009,2.0064,2.0019,1.9996,1.9938,1.9913,1.9883,1.9857,1.9856,1.9829,1.9867,1.9863,1.9821,1.982,1.982,1.9819,1.9819,2.0192,2.018,2.0155,2.0112,2.0084,2.003,2.0004,1.9964,1.9925,1.9924,1.9904,1.9903,1.9895,1.9918,1.9918,1.9918,1.9918,1.9918,1.9918,2.0248,2.0218,2.0202,2.0158,2.0135,2.01,2.004,2.0016,1.9979,1.9951,1.9951,1.9913,1.988,1.9872,1.992,1.992,1.9919,1.9919,1.9919,2.029,2.0274,2.025,2.0228,2.0171,2.0144,2.0094,2.0049,2.0023,2.0011,1.9974,1.9957,1.9938,1.9933,1.9926,1.9985,1.9985,1.9985,1.9985,2.0326,2.0314,2.0279,2.0246,2.0209,2.0161,2.0132,2.0085,2.0034,2.0014,2.0,1.9988,1.9985,1.9967,1.9962,1.9954,2.0019,2.0019,2.0019,2.0348,2.033,2.0315,2.0266,2.0219,2.0178,2.0149,2.0111,2.0049,2.0019,1.9998,1.9997,1.9975,1.9971,1.9939,1.9931,1.9916,0,0]}]]